Home > Weather > Vallejo > Past weeks

Flag for USA Weather for the Past 2 Weeks in Vallejo, California, USA

Now
61 °F

Clear.


Feels Like: 61 °F
Forecast: 56 / 77 °F
Wind: 8 mph from Northwest

Location: Napa County Airport

Current Time: Apr 30, 2016 at 4:56:40 AM

Latest Report: Apr 30, 2016 at 3:54 AM


Visibility: 10 mi

Pressure: 29.91 "Hg

Humidity: 35%

Dew Point: 33 °F

Location of VallejoLocation

Historic Weather in Vallejo — Graph

°F

Vallejo Temperature Yesterday

Maximum temperature yesterday: 71 °F (at 3:54 PM)
Minimum temperature yesterday: 45 °F (at 11:54 PM)
Average temperature yesterday: 57 °F

High & Low Weather Summary for the Past Weeks

 TemperatureHumidityPressure
High82 °F (Apr 18, 1:54 PM)100% (Apr 15, 6:54 AM)30.18 "Hg (Apr 15, 6:54 AM)
Low37 °F (Apr 15, 6:54 AM)23% (Apr 15, 5:54 PM)29.75 "Hg (Apr 22, 5:54 AM)
Average58 °F70%29.96 "Hg
* Reported Apr 15 2:54 AM — Apr 30 2:54 AM, Vallejo, Weather by CustomWeather, © 2016

Note: Actual official high and low records may vary slightly from our data, if they occured in-between our weather recording intervals... More about our weather records

Advertising

Vallejo Weather History for the Previous 24 Hours

Scroll right to see more
 ConditionsComfort  
Time TempWeatherWind HumidityBarometerVisibility
2:54 AM
Sat, Apr 30
62 °FClear.10 mph35%29.90 "Hg10 mi
1:54 AM62 °FClear.14 mph37%29.90 "Hg10 mi
12:54 AM49 °FClear.3 mph77%29.90 "Hg10 mi
11:54 PM
Fri, Apr 29
45 °FClear.5 mph82%29.89 "Hg10 mi
10:54 PM52 °FClear.3 mph75%29.88 "Hg10 mi
9:54 PM57 °FClear.8 mph62%29.87 "Hg10 mi
8:54 PM56 °FSunny.13 mph75%29.85 "Hg10 mi
7:54 PM58 °FSunny.8 mph72%29.85 "Hg10 mi
6:54 PM61 °FSunny.13 mph67%29.85 "Hg10 mi
5:54 PM65 °FSunny.23 mph59%29.85 "Hg10 mi
4:54 PM68 °FSunny.18 mph53%29.87 "Hg10 mi
3:54 PM71 °FSunny.17 mph49%29.89 "Hg10 mi
2:54 PM69 °FSunny.12 mph57%29.92 "Hg10 mi
1:54 PM68 °FSunny.13 mph61%29.95 "Hg10 mi
12:54 PM66 °FSunny.9 mph63%29.96 "Hg10 mi
11:54 AM64 °FSunny.7 mph68%29.99 "Hg10 mi
10:54 AM61 °FSunny.9 mph70%30.01 "Hg10 mi
9:54 AM59 °FSunny.10 mph75%30.00 "Hg10 mi
8:54 AM56 °FScattered clouds.9 mph84%30.01 "Hg10 mi
7:54 AM51 °FPassing clouds.No wind86%29.99 "Hg10 mi
6:54 AM48 °FPassing clouds.No wind89%29.98 "Hg10 mi
5:54 AM49 °FPassing clouds.No wind90%29.96 "Hg10 mi
4:54 AM50 °FClear.3 mph89%29.96 "Hg10 mi
Weather by CustomWeather, © 2016

See weather overviewHow to use our weather pages